Tracking 19245 objects as of 19-Aug-2018
HD Live streaming from Space Station
objects crossing your sky now

FENGYUN 1C DEB

Track FENGYUN 1C DEB now!
10-day predictions


NORAD ID: 29964
Int'l Code: 1999-025KN
Perigee: 809.4 km
Apogee: 1,020.2 km
Inclination: 98.4 °
Period: 103.2 minutes
Semi major axis: 7285 km
RCS: 0.0871 m2 (small)
Launch date: May 10, 1999
Source: People's Republic of China (PRC)
Launch site: Taiyaun Space Center, China (TSC)

Note: This is SATELLITE DEBRIS
aabbcc
Your satellite tracking list
Your tracking list is empty




NASA's NSSDC Master Catalog

Two Line Element Set (TLE):
1 29964U 99025KN  18229.89664225 +.00000004 +00000-0 +28312-4 0  9993
2 29964 098.3832 256.3626 0144692 202.6461 156.8277 13.96001907589567
Source of the keplerian elements: AFSPC